SCP
-0 -0 -0 -0 -0 -0 0 0 0 0 0 0 0 -0 -0 -0 -0 -0 -0 -0 0 0 0 0 -0 0 0 0 0 0 0 0 0 0 0 0 0 0 0 0 0 0 0 3 1
-0 -0 -0 -0 0 0 0 0 0 0 0 -0 0 0 -0 0 -0 -0 -0 0 0 0 0 0 0 0 0 0 0 0 0 0 0 0 0 0 0 -0 0 0 0 0 0 2 2
-0 -0 -0 0 0 0 0 0 0 0 0 0 0 -0 0 0 -0 0 0 0 0 0 0 0 0 0 0 0 0 0 0 0 0 0 0 0 0 -0 0 0 0 0 0 0 1
-0 -0 -0 0 0 0 0 0 0 0 0 0 0 0 -0 0 0 0 0 0 0 0 0 0 0 0 0 0 0 0 0 0 0 0 0 0 0 0 0 0 0 0 0 0 1
-0 -0 -0 -0 0 0 0 0 0 0 0 0 0 0 0 0 0 0 0 0 0 0 0 0 0 0 0 0 0 0 0 0 0 0 0 0 0 0 0 0 0 0 0 0 0
-0 0 0 -0 -0 0 0 0 0 0 0 0 0 0 0 0 0 0 0 0 0 0 0 0 0 0 0 0 0 0 0 0 0 0 0 0 0 0 0 0 0 0 0 0 0
-0 -0 -0 -0 -0 0 0 0 0 0 0 0 0 0 0 0 0 0 0 0 0 0 0 0 0 0 0 0 0 0 0 0 0 0 0 0 0 0 0 0 0 0 0 0 0
-0 -0 -0 -0 0 0 0 0 0 0 0 0 0 0 0 0 0 0 0 0 0 0 0 0 0 0 0 0 0 0 0 0 0 0 0 0 0 0 0 0 0 0 0 0 0
0 0 0 0 0 0 0 0 -0 0 0 0 0 0 0 0 0 0 0 0 0 0 0 0 0 0 0 0 0 0 0 0 0 0 0 0 0 0 0 0 0 0 0 0 0
0 0 0 0 0 0 -0 0 0 0 0 0 0 0 0 0 0 0 0 0 0 0 0 0 0 0 0 0 0 0 0 0 0 0 0 0 0 0 0 0 0 0 0 0 0
0 0 0 0 0 0 0 -0 0 0 0 0 0 0 0 0 0 0 0 0 0 0 0 0 0 0 0 0 0 0 0 0 0 0 0 0 0 0 0 0 0 0 0 0 0
0 0 0 0 0 -0 -0 -0 0 0 0 0 0 0 0 0 0 0 0 0 0 0 0 0 0 0 0 0 0 0 0 0 0 0 0 0 0 0 0 0 0 0 0 0 0
0 0 0 0 0 0 -0 0 0 0 0 0 0 0 0 0 0 0 0 0 0 0 0 0 0 -0 -0 -0 0 0 0 0 0 0 0 0 0 0 0 0 0 0 0 0 0
0 0 0 0 0 0 0 0 0 0 0 0 0 0 0 0 0 0 -0 0 0 0 0 0 0 0 0 0 0 0 0 0 0 0 0 0 0 0 0 0 0 0 0 0 0
0 0 0 0 0 0 0 0 0 0 0 0 0 0 0 0 0 0 0 0 0 0 0 0 0 0 0 0 0 0 0 0 0 0 0 0 0 0 0 0 0 0 0 0 0
0 0 0 0 0 0 0 0 0 0 0 0 0 0 -0 0 0 0 0 0 0 -0 0 0 0 0 0 0 0 0 0 0 0 0 0 0 0 0 0 0 0 0 0 0 0
0 0 0 0 0 0 0 0 0 0 0 0 0 0 0 0 0 0 0 0 0 0 0 0 0 0 0 0 0 0 -0 0 0 0 0 0 0 0 0 0 0 0 0 0 0
0 0 0 0 0 0 0 0 0 0 0 0 0 0 0 0 0 0 0 -0 0 0 0 0 0 0 0 0 0 0 0 0 0 0 0 0 0 0 0 0 -0 0 0 0 0
0 0 0 0 0 0 0 0 0 0 0 0 0 0 0 0 0 0 0 0 0 -0 0 0 -0 0 0 0 0 0 0 0 0 0 0 0 0 0 0 0 -0 0 0 0 0
0 0 0 0 0 0 0 0 0 0 0 0 0 0 0 0 0 0 0 0 0 0 0 -0 -0 0 0 0 0 0 0 0 0 0 0 0 0 0 0 -0 0 0 0 0 0
0 0 0 0 0 0 0 0 0 0 0 0 0 0 -0 0 0 0 0 0 0 0 -0 0 0 0 0 -0 -0 0 0 0 -0 -0 0 -0 0 0 0 0 0 0 0 0 0
0 0 0 0 0 0 0 0 0 0 0 0 0 0 -0 -0 0 -0 -0 0 -0 -0 -0 -0 -0 -0 0 0 -0 0 -0 0 0 -0 0 0 -0 0 1 1 0 0 0 1 3
0 -0 0 0 0 0 0 0 0 0 0 0 0 0 -0 0 -0 -0 0 -0 0 0 0 0 -0 -0 0 -0 -0 -0 -0 0 0 -0 0 0 -0 0 0 1 4 2 2 3 3
0 0 0 0 0 0 0 0 0 0 0 0 0 0 0 -0 0 -0 0 -0 0 0 0 -0 -0 -0 0 -0 0 0 0 0 0 0 0 0 0 -0 0 0 0 0 1 1 1
0 0 0 0 0 0 -0 -0 0 0 0 0 0 0 0 -0 -0 -0 -0 -0 -0 -0 -0 -0 -0 0 0 0 0 0 0 0 0 0 0 0 0 0 0 1 0 1 1 1 1
0 0 0 0 0 0 0 0 0 0 0 0 0 -0 -0 -0 -0 -0 -0 -0 -0 0 0 -0 -0 -0 -0 0 0 0 0 0 0 0 -0 0 0 0 0 0 0 1 1 1 1
0 0 0 0 0 0 0 -0 0 0 0 -0 -0 -0 -0 -0 -0 -0 -0 -0 -0 -0 -0 -0 -0 -0 -0 0 0 -0 -0 -0 0 0 0 -0 0 0 0 0 0 0 1 0 0
Wind_Speed_500mb
37 38 38 37 37 37 36 35 35 37 43 46 51 54 52 53 58 55 60 55 31 31 35 32 32 35 38 50 51 46 31 37 54 54 43 55 51 10 12 27 44 22 20 34 43
41 42 45 48 49 51 51 50 47 45 45 44 46 48 52 62 67 71 51 45 46 53 39 29 37 33 49 43 60 43 34 58 47 49 49 60 61 58 28 34 39 30 28 27 31
47 49 52 55 56 56 60 61 63 64 65 63 61 58 52 48 50 9 12 22 26 45 42 41 36 45 53 58 57 59 52 47 53 65 72 58 57 65 24 27 35 45 43 32 32
52 53 53 55 56 56 55 55 57 57 61 64 67 70 58 31 14 14 24 27 12 9 23 31 43 52 46 51 63 55 69 68 62 70 61 48 71 47 38 36 39 47 45 42 48
51 53 54 53 54 54 52 53 54 59 55 60 66 65 46 19 42 38 39 37 31 19 24 31 44 51 49 49 57 59 56 71 72 68 69 62 57 50 49 39 32 22 19 34 26
50 50 52 52 49 51 53 54 53 51 54 56 51 43 23 29 16 25 18 19 21 29 33 37 43 50 52 49 56 59 60 63 66 71 68 54 54 43 55 52 48 43 27 31 32
56 59 58 56 61 59 56 58 57 54 42 39 42 32 33 72 24 23 29 26 25 32 42 39 40 48 48 48 65 62 59 57 56 69 59 69 51 59 55 64 65 50 53 42 48
60 61 61 63 64 62 61 54 52 51 49 40 23 17 30 24 22 37 41 46 36 35 41 40 41 48 55 59 58 47 54 52 57 55 58 52 59 53 67 62 60 56 57 54 57
64 67 68 70 70 65 59 50 46 40 43 31 4 18 26 21 28 31 31 38 36 39 35 32 36 45 44 40 40 47 46 57 50 53 58 47 64 52 66 69 65 65 63 65 60
68 70 71 69 71 68 60 44 36 32 22 11 19 20 38 29 11 14 18 25 31 26 37 36 26 33 37 33 41 46 51 54 56 46 55 55 63 47 67 60 58 57 72 70 72
69 71 74 71 69 55 54 44 29 13 13 33 44 43 52 25 17 22 21 22 30 40 36 43 30 43 48 48 55 52 50 56 55 52 57 51 60 50 49 53 39 63 73 85 75
68 72 73 71 63 33 34 23 25 32 55 50 89 91 91 70 74 63 34 43 33 40 40 36 48 48 43 49 52 53 53 57 53 53 47 47 58 51 50 52 59 53 44 43 63
70 72 73 69 47 25 31 23 35 36 28 63 66 54 54 42 53 51 46 49 48 41 44 46 51 49 51 47 49 51 51 49 52 51 56 43 47 49 39 50 56 64 64 53 55
70 72 79 69 19 33 17 30 31 32 14 38 13 5 11 11 26 34 38 41 41 49 48 43 48 53 51 44 51 47 47 52 52 46 39 44 32 41 39 36 37 56 71 63 67
73 70 72 43 40 20 31 37 34 20 15 9 15 4 16 24 32 19 35 31 41 42 41 41 56 42 43 51 48 44 38 44 50 46 46 56 28 38 40 45 45 43 56 70 77
76 73 73 38 33 32 41 36 25 11 18 21 39 40 32 46 30 39 30 37 53 52 46 54 63 48 48 45 49 43 33 57 46 36 37 47 44 33 44 41 47 46 64 66 63
86 76 47 32 13 32 38 35 16 20 32 44 58 47 42 46 48 52 52 54 43 45 47 45 56 53 49 57 53 37 20 24 27 30 34 45 48 37 45 48 42 42 67 81 73
90 76 32 18 13 32 37 24 23 24 35 54 53 61 56 57 55 45 35 31 40 56 14 30 40 58 46 40 45 45 39 22 23 29 40 49 51 44 53 53 59 35 67 73 76
86 54 26 20 11 34 28 18 23 36 47 49 60 46 54 60 61 55 55 49 44 38 12 19 36 31 32 36 35 53 16 21 30 44 30 30 53 53 46 57 57 28 18 57 60
77 50 18 5 22 33 16 28 35 45 48 42 49 48 53 55 53 55 48 40 37 34 22 14 15 25 40 19 44 40 10 28 25 39 18 26 39 38 49 54 51 39 21 22 39
45 30 4 14 34 24 19 29 44 54 41 36 41 44 47 41 36 44 53 50 27 21 9 9 11 13 9 11 40 35 21 6 11 34 32 19 15 25 44 35 44 33 38 32 28
26 16 35 26 30 12 17 36 44 37 32 35 30 35 39 39 29 33 40 44 17 12 20 7 11 16 32 24 42 23 39 39 9 27 33 11 8 38 42 19 29 21 37 37 36
35 40 10 39 18 21 36 37 37 29 31 30 33 39 24 18 18 14 11 28 37 17 3 4 6 13 21 21 6 8 26 30 23 9 41 23 18 21 29 27 23 32 34 32 35
20 16 38 39 30 37 36 39 36 33 34 46 38 36 9 40 35 31 19 11 31 13 14 12 6 13 20 27 20 16 39 25 27 18 30 29 37 8 20 24 13 22 26 30 40
13 18 36 18 31 34 38 40 33 38 36 48 33 30 45 31 46 38 48 44 39 19 8 1 7 24 34 38 41 43 45 41 33 32 30 30 29 21 19 15 13 14 24 32 38
29 41 32 53 32 38 39 29 43 42 43 37 32 51 43 34 37 48 42 37 37 32 23 4 7 28 37 36 37 48 47 43 38 35 29 23 13 3 11 14 6 19 23 28 37
29 33 32 29 31 31 31 42 35 41 21 55 42 42 43 37 56 67 66 58 47 42 35 28 17 12 15 20 41 21 49 39 37 40 36 35 26 18 21 19 13 32 32 46 47
Wind_Direction_500mb
3 357 352 349 345 340 335 331 327 323 322 319 321 319 319 319 312 302 276 267 256 261 243 251 260 240 233 237 233 233 242 244 242 248 252 261 270 167 190 234 254 178 173 97 134
358 353 349 346 343 339 335 331 328 324 319 313 312 314 318 321 315 301 292 271 252 246 246 241 244 233 229 232 232 228 238 237 244 250 250 262 270 275 192 216 238 212 156 138 161
356 352 348 344 341 337 333 332 330 328 326 322 319 318 324 324 317 265 303 315 251 242 243 238 245 247 232 231 230 229 239 247 246 249 261 266 266 276 233 204 233 247 195 172 183
353 349 346 342 339 334 330 325 321 319 317 315 316 317 327 322 292 276 299 303 312 217 230 234 233 238 245 234 232 240 236 243 254 264 268 258 261 271 257 238 222 236 218 199 198
350 347 343 340 336 331 326 320 316 311 309 308 308 309 320 261 258 296 271 282 259 251 227 229 228 233 239 245 241 238 243 242 241 252 258 269 269 256 259 237 240 271 184 161 186
347 344 341 339 335 330 324 319 311 303 302 303 305 305 293 261 279 254 265 257 238 225 230 230 232 236 255 246 248 253 252 257 250 246 247 255 260 258 241 253 231 237 212 192 211
347 346 344 342 338 339 334 328 318 309 302 292 292 290 259 254 232 241 254 247 238 238 239 238 241 247 253 255 259 253 254 262 248 241 246 247 251 249 236 241 249 238 242 233 209
348 345 346 344 343 340 336 330 326 318 310 304 286 238 255 261 271 248 253 252 250 238 238 242 247 251 252 261 266 261 252 245 241 250 243 241 246 240 239 234 240 240 241 239 234
348 346 345 343 339 336 332 328 319 315 307 313 249 203 265 285 253 258 244 244 246 245 245 242 244 253 254 247 253 246 249 239 251 246 238 217 245 243 240 234 233 236 233 236 238
346 343 341 340 335 334 334 333 311 306 298 292 261 245 246 255 280 230 239 237 241 242 232 232 239 239 234 237 232 237 242 242 254 244 231 240 237 234 239 241 252 232 232 233 229
344 341 339 339 334 337 345 3 343 289 223 246 266 237 265 237 241 242 242 236 243 240 230 221 231 234 228 226 246 256 253 253 251 231 240 241 237 232 218 221 233 231 239 219 226
343 341 339 337 335 338 346 335 337 307 300 270 261 259 264 266 271 259 242 232 231 238 237 233 233 242 246 251 245 237 249 263 268 271 271 239 243 237 219 208 222 238 244 221 213
343 340 337 333 333 343 326 312 325 323 292 295 268 262 241 243 248 261 241 236 239 241 237 242 240 239 236 244 250 251 248 247 250 259 268 265 262 242 241 210 214 210 237 222 219
341 340 333 334 339 320 324 327 327 322 283 276 154 190 164 227 241 246 250 229 232 239 257 248 242 244 254 247 237 240 250 256 253 258 251 249 258 248 228 245 238 213 212 213 211
338 339 332 333 322 332 324 325 321 316 293 26 91 146 254 212 310 263 234 223 234 249 261 263 288 297 265 243 269 289 267 241 262 245 257 256 253 249 222 225 234 241 226 218 206
332 334 325 334 300 306 319 316 306 250 252 12 11 349 318 292 304 298 227 232 244 271 262 261 275 267 259 258 273 277 288 300 233 249 244 245 249 231 254 229 220 219 224 225 214
334 334 318 312 293 328 321 317 275 242 312 344 343 333 314 304 309 302 292 288 277 259 243 280 271 251 252 259 258 242 238 244 232 226 241 234 244 243 238 247 245 245 212 211 210
337 337 331 300 300 322 322 289 260 313 319 340 336 327 312 313 303 304 304 291 311 306 228 222 259 250 258 234 248 269 246 243 211 225 237 222 236 230 232 253 249 276 223 197 201
342 344 316 264 278 330 310 274 297 350 341 333 323 314 311 311 307 302 286 294 288 290 235 295 277 327 311 317 242 233 206 249 271 240 238 239 225 231 231 221 239 243 286 186 196
338 336 306 268 309 314 297 269 308 348 332 324 314 318 313 312 308 304 293 298 313 353 23 21 298 286 262 287 263 251 304 208 222 251 198 261 252 223 215 212 219 211 211 201 189
338 317 57 335 317 274 268 309 332 324 324 328 321 320 322 327 311 299 293 288 288 308 328 341 258 289 53 249 245 242 211 150 295 252 232 242 267 336 317 194 195 184 181 199 167
325 295 312 331 304 262 322 333 318 320 334 333 339 319 318 329 313 302 277 281 9 335 328 129 278 276 276 193 238 308 218 207 184 247 248 196 256 292 324 48 162 149 161 148 120
315 300 28 338 305 336 333 312 314 338 321 336 330 312 19 306 304 329 307 307 326 298 325 329 252 316 313 175 151 321 244 245 220 242 266 281 213 164 317 47 50 105 115 116 110
304 315 332 320 324 348 316 310 316 338 336 332 327 326 292 318 316 307 336 256 232 280 177 274 253 271 282 306 287 306 297 295 221 214 241 252 284 203 165 119 190 128 130 145 136
291 327 334 309 327 311 296 298 319 336 338 333 317 325 323 315 312 312 322 327 328 101 172 157 290 302 296 297 290 278 276 279 270 199 241 267 270 273 18 60 118 160 159 153 152
319 343 323 300 313 294 295 352 341 337 337 316 326 313 310 296 301 309 315 309 311 298 285 211 289 311 297 281 280 261 258 253 257 263 204 247 253 265 132 61 187 146 139 140 139
331 320 317 308 311 313 346 332 336 331 317 319 306 307 305 309 305 298 293 284 270 277 279 291 288 302 264 342 329 260 235 223 231 233 226 204 210 85 158 138 174 105 110 92 80
Wind_Speed_850mb
37 38 38 37 37 37 36 35 35 37 43 46 51 54 52 53 58 55 60 55 31 31 35 32 32 35 38 50 51 46 31 37 54 54 43 55 51 10 12 27 44 22 20 34 43
41 42 45 48 49 51 51 50 47 45 45 44 46 48 52 62 67 71 51 45 46 53 39 29 37 33 49 43 60 43 34 58 47 49 49 60 61 58 28 34 39 30 28 27 31
47 49 52 55 56 56 60 61 63 64 65 63 61 58 52 48 50 9 12 22 26 45 42 41 36 45 53 58 57 59 52 47 53 65 72 58 57 65 24 27 35 45 43 32 32
52 53 53 55 56 56 55 55 57 57 61 64 67 70 58 31 14 14 24 27 12 9 23 31 43 52 46 51 63 55 69 68 62 70 61 48 71 47 38 36 39 47 45 42 48
51 53 54 53 54 54 52 53 54 59 55 60 66 65 46 19 42 38 39 37 31 19 24 31 44 51 49 49 57 59 56 71 72 68 69 62 57 50 49 39 32 22 19 34 26
50 50 52 52 49 51 53 54 53 51 54 56 51 43 23 29 16 25 18 19 21 29 33 37 43 50 52 49 56 59 60 63 66 71 68 54 54 43 55 52 48 43 27 31 32
56 59 58 56 61 59 56 58 57 54 42 39 42 32 33 72 24 23 29 26 25 32 42 39 40 48 48 48 65 62 59 57 56 69 59 69 51 59 55 64 65 50 53 42 48
60 61 61 63 64 62 61 54 52 51 49 40 23 17 30 24 22 37 41 46 36 35 41 40 41 48 55 59 58 47 54 52 57 55 58 52 59 53 67 62 60 56 57 54 57
64 67 68 70 70 65 59 50 46 40 43 31 4 18 26 21 28 31 31 38 36 39 35 32 36 45 44 40 40 47 46 57 50 53 58 47 64 52 66 69 65 65 63 65 60
68 70 71 69 71 68 60 44 36 32 22 11 19 20 38 29 11 14 18 25 31 26 37 36 26 33 37 33 41 46 51 54 56 46 55 55 63 47 67 60 58 57 72 70 72
69 71 74 71 69 55 54 44 29 13 13 33 44 43 52 25 17 22 21 22 30 40 36 43 30 43 48 48 55 52 50 56 55 52 57 51 60 50 49 53 39 63 73 85 75
68 72 73 71 63 33 34 23 25 32 55 50 89 91 91 70 74 63 34 43 33 40 40 36 48 48 43 49 52 53 53 57 53 53 47 47 58 51 50 52 59 53 44 43 63
70 72 73 69 47 25 31 23 35 36 28 63 66 54 54 42 53 51 46 49 48 41 44 46 51 49 51 47 49 51 51 49 52 51 56 43 47 49 39 50 56 64 64 53 55
70 72 79 69 19 33 17 30 31 32 14 38 13 5 11 11 26 34 38 41 41 49 48 43 48 53 51 44 51 47 47 52 52 46 39 44 32 41 39 36 37 56 71 63 67
73 70 72 43 40 20 31 37 34 20 15 9 15 4 16 24 32 19 35 31 41 42 41 41 56 42 43 51 48 44 38 44 50 46 46 56 28 38 40 45 45 43 56 70 77
76 73 73 38 33 32 41 36 25 11 18 21 39 40 32 46 30 39 30 37 53 52 46 54 63 48 48 45 49 43 33 57 46 36 37 47 44 33 44 41 47 46 64 66 63
86 76 47 32 13 32 38 35 16 20 32 44 58 47 42 46 48 52 52 54 43 45 47 45 56 53 49 57 53 37 20 24 27 30 34 45 48 37 45 48 42 42 67 81 73
90 76 32 18 13 32 37 24 23 24 35 54 53 61 56 57 55 45 35 31 40 56 14 30 40 58 46 40 45 45 39 22 23 29 40 49 51 44 53 53 59 35 67 73 76
86 54 26 20 11 34 28 18 23 36 47 49 60 46 54 60 61 55 55 49 44 38 12 19 36 31 32 36 35 53 16 21 30 44 30 30 53 53 46 57 57 28 18 57 60
77 50 18 5 22 33 16 28 35 45 48 42 49 48 53 55 53 55 48 40 37 34 22 14 15 25 40 19 44 40 10 28 25 39 18 26 39 38 49 54 51 39 21 22 39
45 30 4 14 34 24 19 29 44 54 41 36 41 44 47 41 36 44 53 50 27 21 9 9 11 13 9 11 40 35 21 6 11 34 32 19 15 25 44 35 44 33 38 32 28
26 16 35 26 30 12 17 36 44 37 32 35 30 35 39 39 29 33 40 44 17 12 20 7 11 16 32 24 42 23 39 39 9 27 33 11 8 38 42 19 29 21 37 37 36
35 40 10 39 18 21 36 37 37 29 31 30 33 39 24 18 18 14 11 28 37 17 3 4 6 13 21 21 6 8 26 30 23 9 41 23 18 21 29 27 23 32 34 32 35
20 16 38 39 30 37 36 39 36 33 34 46 38 36 9 40 35 31 19 11 31 13 14 12 6 13 20 27 20 16 39 25 27 18 30 29 37 8 20 24 13 22 26 30 40
13 18 36 18 31 34 38 40 33 38 36 48 33 30 45 31 46 38 48 44 39 19 8 1 7 24 34 38 41 43 45 41 33 32 30 30 29 21 19 15 13 14 24 32 38
29 41 32 53 32 38 39 29 43 42 43 37 32 51 43 34 37 48 42 37 37 32 23 4 7 28 37 36 37 48 47 43 38 35 29 23 13 3 11 14 6 19 23 28 37
29 33 32 29 31 31 31 42 35 41 21 55 42 42 43 37 56 67 66 58 47 42 35 28 17 12 15 20 41 21 49 39 37 40 36 35 26 18 21 19 13 32 32 46 47
Wind_Direction_850mb
3 357 352 349 345 340 335 331 327 323 322 319 321 319 319 319 312 302 276 267 256 261 243 251 260 240 233 237 233 233 242 244 242 248 252 261 270 167 190 234 254 178 173 97 134
358 353 349 346 343 339 335 331 328 324 319 313 312 314 318 321 315 301 292 271 252 246 246 241 244 233 229 232 232 228 238 237 244 250 250 262 270 275 192 216 238 212 156 138 161
356 352 348 344 341 337 333 332 330 328 326 322 319 318 324 324 317 265 303 315 251 242 243 238 245 247 232 231 230 229 239 247 246 249 261 266 266 276 233 204 233 247 195 172 183
353 349 346 342 339 334 330 325 321 319 317 315 316 317 327 322 292 276 299 303 312 217 230 234 233 238 245 234 232 240 236 243 254 264 268 258 261 271 257 238 222 236 218 199 198
350 347 343 340 336 331 326 320 316 311 309 308 308 309 320 261 258 296 271 282 259 251 227 229 228 233 239 245 241 238 243 242 241 252 258 269 269 256 259 237 240 271 184 161 186
347 344 341 339 335 330 324 319 311 303 302 303 305 305 293 261 279 254 265 257 238 225 230 230 232 236 255 246 248 253 252 257 250 246 247 255 260 258 241 253 231 237 212 192 211
347 346 344 342 338 339 334 328 318 309 302 292 292 290 259 254 232 241 254 247 238 238 239 238 241 247 253 255 259 253 254 262 248 241 246 247 251 249 236 241 249 238 242 233 209
348 345 346 344 343 340 336 330 326 318 310 304 286 238 255 261 271 248 253 252 250 238 238 242 247 251 252 261 266 261 252 245 241 250 243 241 246 240 239 234 240 240 241 239 234
348 346 345 343 339 336 332 328 319 315 307 313 249 203 265 285 253 258 244 244 246 245 245 242 244 253 254 247 253 246 249 239 251 246 238 217 245 243 240 234 233 236 233 236 238
346 343 341 340 335 334 334 333 311 306 298 292 261 245 246 255 280 230 239 237 241 242 232 232 239 239 234 237 232 237 242 242 254 244 231 240 237 234 239 241 252 232 232 233 229
344 341 339 339 334 337 345 3 343 289 223 246 266 237 265 237 241 242 242 236 243 240 230 221 231 234 228 226 246 256 253 253 251 231 240 241 237 232 218 221 233 231 239 219 226
343 341 339 337 335 338 346 335 337 307 300 270 261 259 264 266 271 259 242 232 231 238 237 233 233 242 246 251 245 237 249 263 268 271 271 239 243 237 219 208 222 238 244 221 213
343 340 337 333 333 343 326 312 325 323 292 295 268 262 241 243 248 261 241 236 239 241 237 242 240 239 236 244 250 251 248 247 250 259 268 265 262 242 241 210 214 210 237 222 219
341 340 333 334 339 320 324 327 327 322 283 276 154 190 164 227 241 246 250 229 232 239 257 248 242 244 254 247 237 240 250 256 253 258 251 249 258 248 228 245 238 213 212 213 211
338 339 332 333 322 332 324 325 321 316 293 26 91 146 254 212 310 263 234 223 234 249 261 263 288 297 265 243 269 289 267 241 262 245 257 256 253 249 222 225 234 241 226 218 206
332 334 325 334 300 306 319 316 306 250 252 12 11 349 318 292 304 298 227 232 244 271 262 261 275 267 259 258 273 277 288 300 233 249 244 245 249 231 254 229 220 219 224 225 214
334 334 318 312 293 328 321 317 275 242 312 344 343 333 314 304 309 302 292 288 277 259 243 280 271 251 252 259 258 242 238 244 232 226 241 234 244 243 238 247 245 245 212 211 210
337 337 331 300 300 322 322 289 260 313 319 340 336 327 312 313 303 304 304 291 311 306 228 222 259 250 258 234 248 269 246 243 211 225 237 222 236 230 232 253 249 276 223 197 201
342 344 316 264 278 330 310 274 297 350 341 333 323 314 311 311 307 302 286 294 288 290 235 295 277 327 311 317 242 233 206 249 271 240 238 239 225 231 231 221 239 243 286 186 196
338 336 306 268 309 314 297 269 308 348 332 324 314 318 313 312 308 304 293 298 313 353 23 21 298 286 262 287 263 251 304 208 222 251 198 261 252 223 215 212 219 211 211 201 189
338 317 57 335 317 274 268 309 332 324 324 328 321 320 322 327 311 299 293 288 288 308 328 341 258 289 53 249 245 242 211 150 295 252 232 242 267 336 317 194 195 184 181 199 167
325 295 312 331 304 262 322 333 318 320 334 333 339 319 318 329 313 302 277 281 9 335 328 129 278 276 276 193 238 308 218 207 184 247 248 196 256 292 324 48 162 149 161 148 120
315 300 28 338 305 336 333 312 314 338 321 336 330 312 19 306 304 329 307 307 326 298 325 329 252 316 313 175 151 321 244 245 220 242 266 281 213 164 317 47 50 105 115 116 110
304 315 332 320 324 348 316 310 316 338 336 332 327 326 292 318 316 307 336 256 232 280 177 274 253 271 282 306 287 306 297 295 221 214 241 252 284 203 165 119 190 128 130 145 136
291 327 334 309 327 311 296 298 319 336 338 333 317 325 323 315 312 312 322 327 328 101 172 157 290 302 296 297 290 278 276 279 270 199 241 267 270 273 18 60 118 160 159 153 152
319 343 323 300 313 294 295 352 341 337 337 316 326 313 310 296 301 309 315 309 311 298 285 211 289 311 297 281 280 261 258 253 257 263 204 247 253 265 132 61 187 146 139 140 139
331 320 317 308 311 313 346 332 336 331 317 319 306 307 305 309 305 298 293 284 270 277 279 291 288 302 264 342 329 260 235 223 231 233 226 204 210 85 158 138 174 105 110 92 80